• In Moldova, Republic
  • List of Countries
  • For 7 days
  • Water Temperature
  • Satellite Maps
  • Weather Map
  • Weather Widgets
  • user-avatar
    Login

    Hourly Weather Stepanakert

    Today, 23 April, Monday

    Time Temperature Precipitation Wind Pressure Humidity
    00:00 +10°C° 0 mm 1 mps 688 mmHg 74%
    01:00 +10°C° 0 mm 1 mps 688 mmHg 74%
    02:00 +10°C° 0 mm 1 mps 688 mmHg 74%
    03:00 +10°C° 0 mm 1 mps 688 mmHg 74%
    04:00 +10°C° 0 mm 1 mps 688 mmHg 74%
    05:00 +10°C° 0 mm 1 mps 688 mmHg 74%
    06:00 +10°C° 0 mm 1 mps 688 mmHg 74%
    07:00 +11°C° 0 mm 1 mps 688 mmHg 68%
    08:00 +13°C° 0 mm 2 mps 688 mmHg 62%
    09:00 +14°C° 0 mm 2 mps 689 mmHg 56%
    10:00 +15°C° 0.1 mm 2 mps 689 mmHg 55%
    11:00 +14°C° 0.1 mm 3 mps 689 mmHg 54%
    12:00 +16°C° 0.1 mm 3 mps 689 mmHg 53%
    13:00 +16°C° 0.1 mm 2 mps 689 mmHg 52%
    14:00 +16°C° 0.1 mm 2 mps 689 mmHg 52%
    15:00 +17°C° 0.1 mm 2 mps 689 mmHg 51%
    16:00 +16°C° 0.1 mm 2 mps 689 mmHg 55%
    17:00 +15°C° 0.1 mm 2 mps 689 mmHg 58%
    18:00 +15°C° 0.1 mm 1 mps 689 mmHg 61%
    19:00 +14°C° 0 mm 1 mps 689 mmHg 65%
    20:00 +12°C° 0 mm 1 mps 690 mmHg 68%
    21:00 +11°C° 0 mm 1 mps 690 mmHg 71%
    22:00 +11°C° 0 mm 1 mps 690 mmHg 72%
    23:00 +10°C° 0 mm 1 mps 690 mmHg 72%

    Tomorrow, 24 April, Tuesday

    Time Temperature Precipitation Wind Pressure Humidity
    00:00 +10°C° 0 mm 1 mps 690 mmHg 73%
    01:00 +9°C° 0 mm 1 mps 690 mmHg 73%
    02:00 +9°C° 0 mm 1 mps 690 mmHg 73%
    03:00 +7°C° 0 mm 2 mps 690 mmHg 73%
    04:00 +9°C° 0 mm 1 mps 691 mmHg 72%
    05:00 +9°C° 0 mm 1 mps 691 mmHg 72%
    06:00 +9°C° 0 mm 1 mps 692 mmHg 71%
    07:00 +10°C° 0 mm 2 mps 692 mmHg 64%
    08:00 +13°C° 0 mm 2 mps 692 mmHg 57%
    09:00 +13°C° 0 mm 3 mps 693 mmHg 50%
    10:00 +14°C° 0 mm 3 mps 693 mmHg 48%
    11:00 +16°C° 0 mm 3 mps 693 mmHg 46%
    12:00 +17°C° 0 mm 3 mps 693 mmHg 44%
    13:00 +17°C° 0 mm 3 mps 693 mmHg 44%
    14:00 +17°C° 0 mm 3 mps 693 mmHg 44%
    15:00 +18°C° 0 mm 3 mps 693 mmHg 44%
    16:00 +16°C° 0 mm 3 mps 693 mmHg 51%
    17:00 +14°C° 0 mm 3 mps 693 mmHg 59%
    18:00 +13°C° 0 mm 3 mps 693 mmHg 66%
    19:00 +11°C° 0 mm 3 mps 694 mmHg 72%
    20:00 +10°C° 0 mm 2 mps 694 mmHg 77%
    21:00 +9°C° 0 mm 2 mps 695 mmHg 83%
    22:00 +8°C° 0 mm 2 mps 695 mmHg 84%
    23:00 +9°C° 0 mm 1 mps 695 mmHg 84%

    Day after tomorrow, 25 April, Wednesday

    Time Temperature Precipitation Wind Pressure Humidity
    00:00 +9°C° 0 mm 1 mps 696 mmHg 85%
    01:00 +8°C° 0 mm 1 mps 695 mmHg 85%
    02:00 +8°C° 0 mm 1 mps 695 mmHg 85%
    03:00 +8°C° 0 mm 1 mps 695 mmHg 84%
    04:00 +8°C° 0 mm 1 mps 695 mmHg 82%
    05:00 +9°C° 0 mm 1 mps 695 mmHg 80%
    06:00 +9°C° 0 mm 1 mps 695 mmHg 78%
    07:00 +11°C° 0 mm 1 mps 695 mmHg 73%
    08:00 +12°C° 0 mm 2 mps 696 mmHg 67%
    09:00 +14°C° 0 mm 2 mps 696 mmHg 62%
    10:00 +16°C° 0 mm 2 mps 695 mmHg 59%
    11:00 +17°C° 0 mm 2 mps 695 mmHg 55%
    12:00 +18°C° 0 mm 3 mps 695 mmHg 52%
    13:00 +19°C° 0 mm 2 mps 695 mmHg 52%
    14:00 +19°C° 0 mm 2 mps 694 mmHg 51%
    15:00 +19°C° 0 mm 2 mps 694 mmHg 51%
    16:00 +19°C° 0 mm 2 mps 694 mmHg 56%
    17:00 +18°C° 0 mm 2 mps 693 mmHg 61%
    18:00 +18°C° 0 mm 1 mps 693 mmHg 66%
    19:00 +15°C° 0 mm 1 mps 694 mmHg 70%
    20:00 +14°C° 0 mm 1 mps 694 mmHg 74%
    21:00 +13°C° 0 mm 1 mps 694 mmHg 77%
    22:00 +13°C° 0 mm 1 mps 694 mmHg 78%
    23:00 +12°C° 0 mm 1 mps 694 mmHg 78%

    26 April, Thursday

    Time Temperature Precipitation Wind Pressure Humidity
    00:00 +12°C° 0 mm 1 mps 694 mmHg 79%
    01:00 +12°C° 0 mm 1 mps 694 mmHg 79%
    02:00 +11°C° 0 mm 1 mps 694 mmHg 80%
    03:00 +11°C° 0 mm 1 mps 694 mmHg 80%
    04:00 +11°C° 0 mm 1 mps 694 mmHg 77%
    05:00 +12°C° 0 mm 1 mps 695 mmHg 75%
    06:00 +12°C° 0 mm 1 mps 695 mmHg 72%
    07:00 +14°C° 0 mm 1 mps 695 mmHg 65%
    08:00 +16°C° 0 mm 2 mps 696 mmHg 59%
    09:00 +18°C° 0 mm 2 mps 696 mmHg 52%
    10:00 +19°C° 0 mm 2 mps 696 mmHg 49%
    11:00 +20°C° 0 mm 2 mps 696 mmHg 46%
    12:00 +21°C° 0 mm 3 mps 695 mmHg 43%
    13:00 +21°C° 0 mm 3 mps 695 mmHg 44%
    14:00 +22°C° 0 mm 3 mps 695 mmHg 44%
    15:00 +22°C° 0 mm 3 mps 694 mmHg 44%
    16:00 +21°C° 0.1 mm 3 mps 694 mmHg 50%
    17:00 +20°C° 0.1 mm 2 mps 694 mmHg 55%
    18:00 +19°C° 0.1 mm 2 mps 694 mmHg 60%
    19:00 +17°C° 0 mm 2 mps 694 mmHg 65%
    20:00 +16°C° 0 mm 2 mps 695 mmHg 69%
    21:00 +15°C° 0 mm 2 mps 695 mmHg 74%
    22:00 +14°C° 0 mm 2 mps 695 mmHg 73%
    23:00 +14°C° 0 mm 1 mps 695 mmHg 72%

    27 April, Friday

    Time Temperature Precipitation Wind Pressure Humidity
    00:00 +14°C° 0 mm 1 mps 695 mmHg 71%
    01:00 +13°C° 0 mm 1 mps 694 mmHg 73%
    02:00 +13°C° 0 mm 1 mps 693 mmHg 74%
    03:00 +12°C° 0 mm 1 mps 693 mmHg 75%
    04:00 +13°C° 0 mm 1 mps 693 mmHg 73%
    05:00 +13°C° 0 mm 1 mps 694 mmHg 71%
    06:00 +13°C° 0 mm 1 mps 694 mmHg 69%
    07:00 +15°C° 0 mm 2 mps 694 mmHg 63%
    08:00 +17°C° 0 mm 2 mps 695 mmHg 57%
    09:00 +18°C° 0 mm 2 mps 695 mmHg 51%
    10:00 +20°C° 0 mm 2 mps 694 mmHg 48%
    11:00 +21°C° 0 mm 2 mps 694 mmHg 46%
    12:00 +22°C° 0 mm 3 mps 694 mmHg 44%
    13:00 +22°C° 0.1 mm 3 mps 694 mmHg 44%
    14:00 +22°C° 0.1 mm 3 mps 693 mmHg 45%
    15:00 +22°C° 0.1 mm 3 mps 693 mmHg 46%
    16:00 +21°C° 0.1 mm 2 mps 693 mmHg 51%
    17:00 +20°C° 0.1 mm 2 mps 693 mmHg 56%
    18:00 +19°C° 0.1 mm 1 mps 693 mmHg 62%
    19:00 +19°C° 0 mm 1 mps 693 mmHg 63%
    20:00 +18°C° 0 mm 1 mps 693 mmHg 65%
    21:00 +16°C° 0 mm 1 mps 694 mmHg 67%
    22:00 +16°C° 0 mm 1 mps 693 mmHg 68%
    23:00 +15°C° 0 mm 1 mps 693 mmHg 69%

    28 April, Saturday

    Time Temperature Precipitation Wind Pressure Humidity
    00:00 +15°C° 0 mm 1 mps 692 mmHg 71%
    01:00 +14°C° 0 mm 1 mps 692 mmHg 69%
    02:00 +14°C° 0 mm 1 mps 692 mmHg 68%
    03:00 +14°C° 0 mm 1 mps 691 mmHg 67%
    04:00 +14°C° 0 mm 1 mps 691 mmHg 67%
    05:00 +15°C° 0 mm 2 mps 692 mmHg 66%
    06:00 +15°C° 0 mm 2 mps 692 mmHg 66%
    07:00 +17°C° 0 mm 2 mps 692 mmHg 60%
    08:00 +18°C° 0 mm 2 mps 692 mmHg 55%
    09:00 +20°C° 0 mm 2 mps 693 mmHg 50%
    10:00 +21°C° 0 mm 2 mps 692 mmHg 47%
    11:00 +23°C° 0 mm 2 mps 692 mmHg 45%
    12:00 +24°C° 0 mm 2 mps 692 mmHg 43%
    13:00 +24°C° 0.1 mm 3 mps 692 mmHg 43%
    14:00 +25°C° 0.1 mm 3 mps 691 mmHg 43%
    15:00 +25°C° 0.1 mm 3 mps 691 mmHg 43%
    16:00 +24°C° 0.1 mm 2 mps 691 mmHg 48%
    17:00 +23°C° 0.1 mm 2 mps 691 mmHg 52%
    18:00 +22°C° 0.1 mm 1 mps 691 mmHg 57%
    19:00 +21°C° 0 mm 1 mps 691 mmHg 59%
    20:00 +18°C° 0 mm 2 mps 691 mmHg 62%
    21:00 +17°C° 0 mm 2 mps 691 mmHg 65%
    22:00 +17°C° 0 mm 2 mps 691 mmHg 65%
    23:00 +17°C° 0 mm 2 mps 691 mmHg 65%
    Show more